[[[{"header":{"parameterUnit":"kt","parameterCategory":2,"dx":1,"dy":1,"la1":30.253999710083008,"la2":30.299108505249023,"lo1":-89.0895004272461,"lo2":-89.04439544677734,"nx":28,"ny":28,"refTime":"2022-09-24T21:00:00:Z","depth":0,"parameterNumber":1,"parameterNumberName":"U-component_of_WINDS"},"data":[1.3127,1.3172,1.3203,1.3267,1.3306,1.3354,1.3381,1.3418,1.3456,1.3514,1.3553,1.3588,1.3637,1.3689,1.3731,1.3745,1.376,1.3751,1.3769,1.3784,1.3788,1.3792,1.3785,1.3754,1.3754,1.3749,1.3749,1.3749,1.3126,1.3166,1.321,1.3275,1.3312,1.3339,1.3391,1.342,1.3462,1.3509,1.3551,1.3605,1.3651,1.3705,1.3754,1.3773,1.3788,1.3783,1.3782,1.3789,1.3806,1.3798,1.377,1.377,1.377,1.377,1.377,1.377,1.3134,1.316,1.3219,1.3268,1.331,1.3352,1.3382,1.3426,1.3469,1.3528,1.3558,1.3606,1.3659,1.3736,1.377,1.3806,1.3817,1.3822,1.3823,1.3823,1.3818,1.3815,1.3816,1.3816,1.3817,1.3817,1.3817,0,1.315,1.3175,1.3222,1.3277,1.3315,1.3361,1.3409,1.3428,1.3494,1.3527,1.3576,1.361,1.3676,1.3725,1.378,1.3816,1.3847,1.3855,1.3858,1.3844,1.3821,1.3831,1.3856,1.3855,1.3856,1.3856,1.3856,1.3857,1.3158,1.3187,1.3267,1.3294,1.333,1.3375,1.3408,1.3465,1.3497,1.3563,1.3583,1.3634,1.3679,1.3752,1.3804,1.3853,1.3869,1.3865,1.3877,1.386,1.3867,1.3864,1.3866,1.3861,1.3861,1.386,1.386,0,1.3159,1.3216,1.3271,1.3349,1.3369,1.3395,1.346,1.3488,1.3531,1.3575,1.3589,1.3655,1.3702,1.3757,1.3823,1.385,1.3886,1.3901,1.3866,1.3872,1.3872,1.387,1.3868,1.3869,1.3903,1.3903,1.3903,0,1.3188,1.3224,1.3306,1.3336,1.3376,1.3435,1.3473,1.3514,1.3565,1.3601,1.3648,1.368,1.3746,1.3785,1.3825,1.3865,1.3878,1.39,1.391,1.3896,1.3893,1.3913,1.3914,1.3935,1.3935,1.3935,1.3935,0,1.3184,1.3272,1.3321,1.335,1.3438,1.3459,1.3496,1.3555,1.3588,1.3639,1.366,1.3715,1.3745,1.3785,1.3836,1.3842,1.3887,1.3906,1.391,1.3908,1.3918,1.3917,1.39,1.3935,1.3935,1.3935,1.3935,0,1.3218,1.3272,1.3335,1.3409,1.343,1.3462,1.3521,1.3562,1.3621,1.365,1.369,1.3729,1.3772,1.3786,1.3844,1.3837,1.3862,1.3889,1.389,1.3897,1.3911,1.3893,1.3874,1.3873,1.3902,1.3901,1.3901,0,1.3195,1.3276,1.333,1.3388,1.3434,1.3485,1.3521,1.3574,1.3616,1.3658,1.3703,1.3752,1.3775,1.3798,1.3819,1.3868,1.3877,1.3868,1.3924,1.3925,1.3905,1.3888,1.3871,1.3872,1.3899,1.3899,1.3899,0,1.3186,1.3298,1.3305,1.3341,1.3424,1.3464,1.3506,1.3569,1.3594,1.365,1.3685,1.3756,1.3775,1.3814,1.3853,1.3873,1.3872,1.3892,1.3894,1.3884,1.3904,1.3886,1.3886,1.3893,1.3894,1.3894,1.3897,0,1.3219,1.327,1.3293,1.3375,1.3415,1.3457,1.3522,1.3554,1.3588,1.3633,1.3687,1.3749,1.3813,1.3829,1.3864,1.3892,1.3896,1.3918,1.3936,1.3925,1.3927,1.3929,1.3927,1.3928,1.3928,1.3929,0,0,1.3183,1.3258,1.3319,1.3366,1.3403,1.346,1.3498,1.3541,1.3627,1.3651,1.3662,1.3771,1.3821,1.3881,1.3882,1.3909,1.3919,1.3923,1.393,1.393,1.393,1.3932,1.3932,1.3931,1.3931,1.3931,1.3931,0,1.321,1.3263,1.3304,1.3351,1.3425,1.3472,1.3481,1.3565,1.3596,1.3653,1.3698,1.3738,1.3827,1.3873,1.3907,1.3916,1.3948,1.3931,1.3914,1.3936,1.3935,1.3934,1.3935,1.3934,1.3933,1.3933,1.3933,0,1.3211,1.3274,1.3302,1.3394,1.3444,1.3491,1.3526,1.3575,1.361,1.3671,1.3727,1.3769,1.3837,1.3887,1.3912,1.3923,1.397,1.3969,1.3966,1.397,1.3994,1.3993,1.3991,1.4009,1.4009,1.4009,0,0,1.3226,1.3276,1.3363,1.3406,1.3433,1.3505,1.3538,1.3577,1.3639,1.3663,1.3721,1.3778,1.3829,1.3862,1.3915,1.3961,1.3979,1.3975,1.3972,1.3969,1.3971,1.3995,1.3993,1.4009,1.4009,1.4009,0,0,1.3233,1.3337,1.3362,1.3421,1.3478,1.3567,1.3589,1.3622,1.3677,1.3679,1.3747,1.3766,1.3814,1.3855,1.3847,1.3922,1.3939,1.3943,1.3894,1.3891,1.3887,1.3876,1.3893,0,0,0,0,0,1.3296,1.3324,1.3346,1.3366,1.3485,1.3554,1.357,1.3628,1.3638,1.3653,1.3706,1.374,1.3864,1.3859,1.3876,1.3885,1.4008,1.4008,1.4008,1.3957,1.3953,1.3949,0,0,0,0,0,0,1.3304,1.3329,1.3345,1.3435,1.3462,1.3554,1.3584,1.36,1.3637,1.3643,1.3728,1.3742,1.3792,1.3854,1.3869,1.3876,1.3888,1.4008,1.4008,1.4008,1.3955,1.3952,1.3949,0,0,0,0,0,1.3311,1.3331,1.3507,1.3435,1.3458,1.3542,1.3583,1.3597,1.3627,1.371,1.3725,1.3667,1.3791,1.3807,1.3863,1.3867,1.3878,1.3883,1.4008,1.4008,1.4009,1.3954,0,0,0,0,0,0,1.3316,1.3344,1.3513,1.3522,1.343,1.3538,1.3557,1.3594,1.3693,1.3708,1.3653,1.3656,1.379,1.3803,1.3816,1.3861,1.3869,1.3875,1.3878,1.4008,1.4008,1.4009,0,0,0,0,0,0,1.3333,1.3351,1.3518,1.3509,1.3517,1.3533,1.3551,1.3607,1.3693,1.363,1.3636,1.3653,1.3771,1.38,1.381,1.3896,1.3863,1.3868,1.3872,1.3874,1.4008,1.4009,0,0,0,0,0,0,1.3342,1.3357,1.3507,1.3513,1.3521,1.3629,1.3584,1.3702,1.3687,1.3625,1.3687,1.3687,1.3767,1.3778,1.3806,1.3887,1.3894,1.3863,1.3867,1.3869,1.3871,0,0,0,0,0,0,0,1.3349,1.3234,1.3458,1.3517,1.3524,1.3608,1.361,1.3613,1.3687,1.3687,1.3687,1.3687,1.3833,1.3839,1.3845,1.388,0,0,1.3863,1.3865,0,0,0,0,0,0,0,0,1.3229,1.3233,1.3459,1.3461,1.3462,1.3608,1.361,1.3612,1.3687,1.3687,1.3687,1.3687,1.3835,1.3839,1.3844,0,0,0,0,0,0,0,0,0,0,0,0,0,0,0,1.3459,1.346,0,1.3609,1.361,1.3612,1.3687,1.3687,1.3687,1.3687,1.3836,1.384,1.3844,0,0,0,0,0,0,0,0,0,0,0,0,0,0,0,0,0,0,0,0,0,0,0,0,0,0,0,0,0,0,0,0,0,0,0,0,0,0,0,0,0,0,0,0,0,0,0,0,0,0,0,0,0,0,0,0,0,0,0,0,0,0,0,0,0,0,0,0,0]}],[{"header":{"parameterUnit":"kt","parameterCategory":2,"dx":1,"dy":1,"la1":30.253999710083008,"la2":30.299108505249023,"lo1":-89.0895004272461,"lo2":-89.04439544677734,"nx":28,"ny":28,"refTime":"2022-09-24T21:00:00:Z","depth":0,"parameterNumber":2,"parameterNumberName":"V-component_of_WINDS"},"data":[8.4649,8.468,8.4657,8.4682,8.4666,8.4678,8.4675,8.467,8.4659,8.4672,8.4675,8.4656,8.4636,8.4634,8.4636,8.4627,8.4629,8.4656,8.464,8.4541,8.4525,8.451,8.45,8.4657,8.4657,8.4745,8.4746,8.4747,8.4577,8.4562,8.4569,8.456,8.4565,8.4525,8.4515,8.4522,8.4534,8.4522,8.4524,8.4533,8.4538,8.4508,8.4509,8.4522,8.4502,8.4523,8.452,8.4517,8.4411,8.4401,8.4539,8.4539,8.4539,8.4539,8.4539,8.4539,8.4439,8.4459,8.444,8.4447,8.4436,8.4431,8.4445,8.4421,8.4427,8.4425,8.4397,8.441,8.4394,8.4383,8.4374,8.4383,8.4356,8.4371,8.4374,8.4378,8.4385,8.4257,8.4383,8.4382,8.4382,8.4381,8.4381,0,8.433,8.431,8.4315,8.4313,8.4317,8.4314,8.4307,8.4315,8.4264,8.4272,8.428,8.4281,8.4284,8.4289,8.4284,8.4271,8.4228,8.4223,8.4233,8.4244,8.4255,8.4247,8.4072,8.4219,8.4217,8.4216,8.4215,8.4215,8.4186,8.4213,8.4182,8.4189,8.4179,8.4191,8.4193,8.4146,8.4151,8.4135,8.4155,8.416,8.4161,8.4179,8.4149,8.4151,8.413,8.4188,8.4129,8.414,8.4127,8.4124,8.4126,8.4199,8.4201,8.4203,8.4204,0,8.4107,8.4069,8.4103,8.407,8.4063,8.4093,8.4064,8.4082,8.4056,8.4077,8.4079,8.4038,8.4048,8.4008,8.4012,8.399,8.4037,8.4019,8.4042,8.4035,8.4081,8.4076,8.4242,8.426,8.4101,8.4102,8.4104,0,8.3968,8.4005,8.3946,8.3968,8.4007,8.3958,8.3998,8.3979,8.3964,8.398,8.3926,8.3943,8.389,8.39,8.3869,8.3901,8.3902,8.3887,8.3878,8.389,8.3892,8.3889,8.388,8.3859,8.3859,8.3858,8.3857,0,8.3845,8.3858,8.3893,8.389,8.3858,8.3876,8.3864,8.3846,8.3849,8.3846,8.3847,8.3848,8.3848,8.385,8.3809,8.3771,8.3848,8.3787,8.3832,8.3833,8.3849,8.3848,8.4007,8.3856,8.3856,8.3856,8.3855,0,8.3725,8.3724,8.3782,8.3753,8.3758,8.3782,8.3779,8.379,8.3775,8.3757,8.3755,8.3713,8.374,8.3681,8.3716,8.3677,8.368,8.3668,8.3671,8.3668,8.3602,8.3694,8.3853,8.3866,8.3669,8.3667,8.3666,0,8.3593,8.3642,8.3599,8.3656,8.3672,8.3608,8.3634,8.3623,8.36,8.361,8.3585,8.3598,8.3547,8.3544,8.3568,8.3542,8.3593,8.3534,8.3547,8.3548,8.3549,8.3696,8.3728,8.3823,8.3646,8.3648,8.3649,0,8.3485,8.3446,8.3459,8.3452,8.3429,8.3443,8.3474,8.3475,8.3484,8.3478,8.3501,8.352,8.348,8.3478,8.3444,8.347,8.3557,8.3424,8.3423,8.3447,8.3633,8.3663,8.3679,8.3528,8.3531,8.3533,8.3633,0,8.3307,8.3327,8.3362,8.335,8.3355,8.3389,8.3346,8.3356,8.3322,8.3297,8.3332,8.3313,8.3314,8.3323,8.3291,8.3364,8.3345,8.3303,8.3241,8.3339,8.337,8.3384,8.3197,8.3195,8.3193,8.3192,0,0,8.3188,8.3215,8.3167,8.3195,8.3195,8.3128,8.3168,8.3161,8.3149,8.315,8.3116,8.3139,8.3125,8.3171,8.3198,8.32,8.3208,8.3176,8.3293,8.3305,8.3315,8.335,8.3365,8.3189,8.3188,8.3188,8.3187,0,8.3112,8.31,8.3141,8.3131,8.3115,8.3086,8.3096,8.3068,8.3054,8.3088,8.3031,8.3047,8.3068,8.3059,8.3058,8.317,8.3126,8.3175,8.3248,8.3277,8.3291,8.3303,8.3341,8.3355,8.3183,8.3183,8.3183,0,8.2995,8.2975,8.299,8.299,8.2979,8.2998,8.2922,8.2947,8.296,8.2885,8.292,8.2904,8.2889,8.294,8.2961,8.293,8.3052,8.3007,8.3017,8.3018,8.3043,8.306,8.3075,8.2878,8.2877,8.2877,0,0,8.2936,8.2955,8.2917,8.297,8.2967,8.2925,8.2931,8.2898,8.2886,8.2882,8.2859,8.2849,8.286,8.2869,8.2877,8.294,8.2931,8.2972,8.2986,8.2998,8.3005,8.3034,8.3051,8.2873,8.2873,8.2873,0,0,8.2907,8.2866,8.2833,8.2889,8.288,8.2846,8.288,8.2839,8.2842,8.2833,8.2778,8.2773,8.282,8.2806,8.2766,8.2853,8.2793,8.2802,8.286,8.2878,8.2892,8.2893,8.2684,0,0,0,0,0,8.2807,8.2871,8.2842,8.2845,8.2844,8.2863,8.2862,8.2817,8.2775,8.2802,8.2777,8.2729,8.2772,8.2736,8.2739,8.2783,8.283,8.2838,8.2845,8.2935,8.2953,8.2969,0,0,0,0,0,0,8.2808,8.2811,8.284,8.281,8.2809,8.286,8.2777,8.2767,8.2771,8.2761,8.2736,8.2728,8.2691,8.2731,8.2735,8.2778,8.2683,8.2833,8.2839,8.2845,8.2941,8.2956,8.297,0,0,0,0,0,8.2808,8.2811,8.2822,8.2808,8.2808,8.2764,8.2775,8.2765,8.2767,8.2728,8.2719,8.2733,8.2693,8.2693,8.2733,8.2777,8.268,8.2681,8.2837,8.2842,8.2847,8.2949,0,0,0,0,0,0,8.2808,8.2802,8.282,8.2818,8.2781,8.276,8.2755,8.2764,8.2733,8.2725,8.2722,8.2715,8.2696,8.2695,8.2696,8.2779,8.2677,8.2679,8.268,8.2841,8.2845,8.2849,0,0,0,0,0,0,8.28,8.2801,8.2819,8.2787,8.2781,8.2757,8.2752,8.278,8.2733,8.2729,8.2722,8.2719,8.2695,8.2697,8.2697,8.2742,8.2675,8.2677,8.2678,8.2679,8.2844,8.2847,0,0,0,0,0,0,8.28,8.2801,8.2787,8.2783,8.2777,8.2753,8.278,8.2782,8.2706,8.2731,8.2698,8.2694,8.2698,8.2697,8.2699,8.2744,8.2743,8.2675,8.2676,8.2677,8.2678,0,0,0,0,0,0,0,8.28,8.2806,8.2831,8.2779,8.2774,8.2801,8.2801,8.28,8.2705,8.2702,8.2698,8.2695,8.2666,8.2668,8.267,8.2745,0,0,8.2675,8.2676,0,0,0,0,0,0,0,0,8.2804,8.2805,8.2831,8.2831,8.2831,8.2801,8.2801,8.28,8.2704,8.2702,8.2699,8.2697,8.2667,8.2668,8.267,0,0,0,0,0,0,0,0,0,0,0,0,0,0,0,8.2831,8.2831,0,8.2801,8.2801,8.2801,8.2704,8.2702,8.27,8.2698,8.2667,8.2668,8.2669,0,0,0,0,0,0,0,0,0,0,0,0,0,0,0,0,0,0,0,0,0,0,0,0,0,0,0,0,0,0,0,0,0,0,0,0,0,0,0,0,0,0,0,0,0,0,0,0,0,0,0,0,0,0,0,0,0,0,0,0,0,0,0,0,0,0,0,0,0]}]]]